| time (UTC) | temp F | wind direction | speed MPH | gust MPH | rain 1hr in | rain 24hr in | rain mn in | humidity % | barometer mb |
| 20260507063010 | 52 | 292 | 3.0 | 11.0 | 0.00 | 0.00 | 0.00 | 86 | 1021.0 |
| 20260507061510 | 52 | 282 | 1.0 | 9.0 | 0.00 | 0.00 | 0.00 | 86 | 1020.8 |
| 20260507060017 | 52 | 282 | 3.0 | 11.0 | 0.00 | 0.00 | 0.00 | 86 | 1020.7 |
| 20260507054509 | 53 | 274 | 4.0 | 13.0 | 0.00 | 0.00 | 0.00 | 85 | 1020.7 |
| 20260507053009 | 52 | 212 | 4.0 | 13.0 | 0.00 | 0.00 | 0.00 | 87 | 1021.0 |
| 20260507051506 | 52 | 246 | 2.0 | 9.0 | 0.00 | 0.00 | 0.00 | 89 | 1021.0 |
| 20260507050019 | 52 | 196 | 2.0 | 8.0 | 0.00 | 0.00 | 0.00 | 90 | 1021.0 |
| 20260507044505 | 52 | 113 | 2.0 | 9.0 | 0.00 | 0.00 | 0.00 | 90 | 1021.0 |
| 20260507043005 | 52 | 252 | 3.0 | 7.0 | 0.00 | 0.00 | 0.00 | 90 | 1021.0 |
| 20260507041510 | 52 | 296 | 2.0 | 7.0 | 0.00 | 0.00 | 0.00 | 90 | 1020.9 |
| 20260507040005 | 52 | 298 | 1.0 | 9.0 | 0.00 | 0.00 | 0.00 | 90 | 1020.7 |
| 20260507034506 | 52 | 161 | 3.0 | 9.0 | 0.00 | 0.00 | 0.00 | 90 | 1020.6 |
| 20260507033003 | 52 | 161 | 2.0 | 7.0 | 0.00 | 0.00 | 0.00 | 89 | 1020.6 |
| 20260507031501 | 53 | 270 | 1.0 | 8.0 | 0.00 | 0.00 | 0.00 | 89 | 1020.7 |
| 20260507030002 | 53 | 257 | 2.0 | 7.0 | 0.00 | 0.00 | 0.00 | 88 | 1020.7 |
| 20260507024601 | 53 | 53 | 1.0 | 6.0 | 0.00 | 0.00 | 0.00 | 88 | 1020.6 |
| 20260507023100 | 53 | 232 | 1.0 | 7.0 | 0.00 | 0.00 | 0.00 | 88 | 1020.7 |
| 20260507021639 | 53 | 209 | 2.0 | 9.0 | 0.00 | 0.00 | 0.00 | 88 | 1020.7 |
| 20260507020112 | 53 | 214 | 1.0 | 8.0 | 0.00 | 0.00 | 0.00 | 87 | 1020.6 |
| 20260507014622 | 54 | 137 | 1.0 | 7.0 | 0.00 | 0.00 | 0.00 | 87 | 1020.6 |
| 20260507013102 | 54 | 240 | 0.0 | 6.0 | 0.00 | 0.00 | 0.00 | 87 | 1020.6 |
| 20260507011601 | 54 | 151 | 2.0 | 6.0 | 0.00 | 0.00 | 0.00 | 86 | 1020.6 |
| 20260507010058 | 54 | 91 | 1.0 | 7.0 | 0.00 | 0.00 | 0.00 | 86 | 1020.7 |
| 20260507004557 | 55 | 136 | 2.0 | 8.0 | 0.00 | 0.00 | 0.00 | 85 | 1020.6 |
| 20260507004503 | 55 | 131 | 2.0 | 8.0 | 0.00 | 0.00 | 0.00 | 85 | 1020.6 |
| 20260507003055 | 55 | 109 | 0.0 | 6.0 | 0.00 | 0.00 | 0.00 | 86 | 1020.6 |
| 20260507001602 | 54 | 138 | 2.0 | 7.0 | 0.00 | 0.00 | 0.00 | 85 | 1020.7 |
| 20260507000121 | 55 | 167 | 1.0 | 8.0 | 0.00 | 0.00 | 0.00 | 84 | 1020.6 |
| 20260506234615 | 55 | 302 | 3.0 | 7.0 | 0.00 | 0.00 | 0.00 | 83 | 1020.6 |
| 20260506233053 | 55 | 88 | 2.0 | 8.0 | 0.00 | 0.00 | 0.00 | 83 | 1020.6 |
| 20260506231546 | 55 | 250 | 2.0 | 7.0 | 0.00 | 0.00 | 0.00 | 83 | 1020.8 |
| 20260506230054 | 55 | 233 | 1.0 | 7.0 | 0.00 | 0.00 | 0.00 | 84 | 1020.8 |
| 20260506224550 | 55 | 219 | 1.0 | 7.0 | 0.00 | 0.00 | 0.00 | 84 | 1020.9 |
| 20260506223145 | 54 | 233 | 2.0 | 8.0 | 0.00 | 0.00 | 0.00 | 83 | 1021.0 |
| 20260506221552 | 55 | 237 | 1.0 | 8.0 | 0.00 | 0.00 | 0.00 | 83 | 1020.9 |
| 20260506220046 | 54 | 292 | 3.0 | 9.0 | 0.00 | 0.00 | 0.00 | 84 | 1020.9 |
| 20260506214640 | 55 | 238 | 2.0 | 6.0 | 0.00 | 0.00 | 0.00 | 84 | 1020.9 |
| 20260506213045 | 55 | 247 | 2.0 | 8.0 | 0.00 | 0.00 | 0.00 | 84 | 1021.1 |
| 20260506211545 | 55 | 249 | 4.0 | 8.0 | 0.00 | 0.00 | 0.00 | 83 | 1021.0 |
| 20260506210045 | 55 | 265 | 3.0 | 7.0 | 0.00 | 0.00 | 0.00 | 84 | 1020.9 |
| 20260506204535 | 54 | 224 | 3.0 | 8.0 | 0.00 | 0.00 | 0.00 | 85 | 1021.0 |
| 20260506203034 | 54 | 249 | 1.0 | 5.0 | 0.00 | 0.00 | 0.00 | 87 | 1021.0 |
| 20260506201536 | 53 | 164 | 1.0 | 6.0 | 0.00 | 0.00 | 0.00 | 87 | 1021.0 |
| 20260506200032 | 53 | 178 | 1.0 | 5.0 | 0.00 | 0.00 | 0.00 | 88 | 1020.9 |
| 20260506194526 | 52 | 193 | 0.0 | 3.0 | 0.00 | 0.00 | 0.00 | 89 | 1020.9 |
| 20260506193041 | 52 | 189 | 1.0 | 4.0 | 0.00 | 0.00 | 0.00 | 90 | 1020.8 |
| 20260506191522 | 52 | 238 | 0.0 | 4.0 | 0.00 | 0.00 | 0.00 | 92 | 1020.7 |
| 20260506190021 | 51 | 106 | 2.0 | 6.0 | 0.00 | 0.00 | 0.00 | 92 | 1020.7 |
| 20260506184520 | 51 | 148 | 0.0 | 5.0 | 0.00 | 0.00 | 0.00 | 92 | 1020.7 |
| 20260506183021 | 51 | 255 | 1.0 | 4.0 | 0.00 | 0.00 | 0.00 | 92 | 1020.6 |
| 20260506181534 | 51 | 238 | 0.0 | 3.0 | 0.00 | 0.00 | 0.00 | 92 | 1020.5 |
| 20260506180019 | 51 | 191 | 0.0 | 4.0 | 0.00 | 0.00 | 0.00 | 92 | 1020.6 |
| 20260506174518 | 51 | 217 | 3.0 | 5.0 | 0.00 | 0.00 | 0.00 | 91 | 1020.5 |
| 20260506173015 | 51 | 238 | 1.0 | 5.0 | 0.00 | 0.00 | 0.00 | 93 | 1020.2 |
| 20260506171516 | 51 | 228 | 2.0 | 5.0 | 0.00 | 0.00 | 0.00 | 93 | 1020.2 |
| 20260506170014 | 50 | 238 | 0.0 | 4.0 | 0.00 | 0.00 | 0.00 | 94 | 1020.0 |
| 20260506164514 | 50 | 243 | 1.0 | 4.0 | 0.00 | 0.00 | 0.00 | 93 | 1020.2 |
| 20260506163016 | 50 | 172 | 1.0 | 4.0 | 0.00 | 0.00 | 0.00 | 93 | 1020.0 |
| 20260506161513 | 51 | 174 | 0.0 | 3.0 | 0.00 | 0.00 | 0.00 | 93 | 1020.0 |
| 20260506160013 | 51 | 18 | 0.0 | 3.0 | 0.00 | 0.00 | 0.00 | 92 | 1020.1 |
| 20260506154510 | 51 | 166 | 0.0 | 3.0 | 0.00 | 0.00 | 0.00 | 92 | 1020.2 |
| 20260506153009 | 51 | 180 | 0.0 | 5.0 | 0.00 | 0.00 | 0.00 | 92 | 1020.1 |
| 20260506151509 | 51 | 222 | 2.0 | 6.0 | 0.00 | 0.00 | 0.00 | 91 | 1019.9 |
| 20260506150014 | 51 | 226 | 2.0 | 5.0 | 0.00 | 0.00 | 0.00 | 91 | 1019.6 |
| 20260506144505 | 51 | 191 | 2.0 | 6.0 | 0.00 | 0.00 | 0.00 | 91 | 1019.5 |
| 20260506143003 | 51 | 235 | 2.0 | 7.0 | 0.00 | 0.00 | 0.00 | 91 | 1019.3 |
| 20260506141502 | 51 | 219 | 0.0 | 5.0 | 0.00 | 0.00 | 0.00 | 91 | 1019.4 |
| 20260506140003 | 50 | 115 | 1.0 | 5.0 | 0.00 | 0.00 | 0.00 | 92 | 1019.3 |
| 20260506134600 | 50 | 245 | 2.0 | 8.0 | 0.00 | 0.00 | 0.00 | 92 | 1019.2 |
| 20260506133124 | 50 | 211 | 1.0 | 7.0 | 0.00 | 0.00 | 0.00 | 92 | 1019.0 |
| 20260506131558 | 50 | 276 | 0.0 | 3.0 | 0.00 | 0.00 | 0.00 | 91 | 1018.8 |
| 20260506130120 | 51 | 181 | 0.0 | 4.0 | 0.00 | 0.00 | 0.00 | 91 | 1018.9 |
| 20260506124555 | 51 | 111 | 1.0 | 8.0 | 0.00 | 0.00 | 0.00 | 91 | 1018.7 |
| 20260506123056 | 50 | 216 | 1.0 | 8.0 | 0.00 | 0.00 | 0.00 | 92 | 1019.0 |
| 20260506121552 | 50 | 208 | 0.0 | 5.0 | 0.00 | 0.00 | 0.00 | 92 | 1018.9 |
| 20260506120051 | 50 | 170 | 0.0 | 4.0 | 0.00 | 0.00 | 0.00 | 92 | 1018.5 |
| 20260506114550 | 50 | 119 | 2.0 | 5.0 | 0.00 | 0.00 | 0.00 | 92 | 1018.4 |
| 20260506113047 | 50 | 126 | 2.0 | 5.0 | 0.00 | 0.00 | 0.00 | 93 | 1018.4 |
| 20260506111546 | 50 | 210 | 0.0 | 3.0 | 0.00 | 0.00 | 0.00 | 93 | 1018.5 |
| 20260506110046 | 50 | 214 | 1.0 | 4.0 | 0.00 | 0.00 | 0.00 | 94 | 1018.2 |
| 20260506104606 | 50 | 150 | 1.0 | 5.0 | 0.00 | 0.00 | 0.00 | 94 | 1018.1 |
| 20260506103042 | 50 | 157 | 1.0 | 6.0 | 0.00 | 0.00 | 0.00 | 94 | 1017.9 |
| 20260506101541 | 50 | 143 | 2.0 | 6.0 | 0.00 | 0.00 | 0.00 | 95 | 1017.7 |
| 20260506100042 | 50 | 174 | 1.0 | 5.0 | 0.00 | 0.00 | 0.00 | 95 | 1017.7 |
| 20260506094538 | 50 | 215 | 0.0 | 3.0 | 0.00 | 0.00 | 0.00 | 95 | 1017.6 |
| 20260506093035 | 49 | 229 | 1.0 | 6.0 | 0.00 | 0.00 | 0.00 | 95 | 1017.6 |
| 20260506091534 | 49 | 146 | 1.0 | 6.0 | 0.00 | 0.00 | 0.00 | 95 | 1017.6 |
| 20260506090041 | 49 | 147 | 1.0 | 6.0 | 0.00 | 0.00 | 0.00 | 95 | 1017.5 |
| 20260506084536 | 49 | 174 | 1.0 | 4.0 | 0.00 | 0.00 | 0.00 | 95 | 1017.5 |
| 20260506083057 | 49 | 169 | 1.0 | 5.0 | 0.00 | 0.00 | 0.00 | 95 | 1017.5 |
| 20260506081528 | 49 | 200 | 1.0 | 4.0 | 0.00 | 0.00 | 0.00 | 95 | 1017.5 |
| 20260506073024 | 49 | 101 | 1.0 | 4.0 | 0.00 | 0.00 | 0.00 | 94 | 1017.0 |
| 20260506071525 | 49 | 135 | 1.0 | 6.0 | 0.00 | 0.00 | 0.00 | 94 | 1017.0 |